Retour au catalogue

ZHIJIANG-1

ActifScienceSSO
NORAD 63982·PAYLOAD·🇨🇳 China
Ce nom de satellite n'a pas encore été confirmé par des sources officielles.

Lancé May 14, 2025 depuis Jiuquan Satellite Launch Center

Loading…

Prochains Passages (prochaines 24 heures)

TLE

FraisSource: Space-Track

Époque: Sep 14, 2026, 22:26 UTC

1 63982U 25100A   26257.93501428  .00009044  00000-0  40270-3 0  9993
2 63982  97.3594 328.7105 0028885  54.4711 305.9212 15.21299493 74284

Suivez ZHIJIANG-1 en temps réel avec AllMySat

Download on the App Store